TAV59DF EKCH-LKPR

Flight info

Callsign TAV59DF
Flight time 1h 0m
Altitude 33000
Route SALLO M44 KOGIM M602 USEDU DCT LUROS M725 HDO DCT GOLOP
Aircraft A21N/M-SDE2E3FGHIJ1RWXY/LB1

Departure

Time 2026-05-06 18:05
Airport Copenhagen Kastrup Airport (EKCH)

Arrival

Time 2026-05-06 19:06
Airport Václav Havel Airport Prague (LKPR)
Time Latitude Longitude Altitude Speed Heading
2026-05-06 17:11 55.62892 12.63805 22 ft 0 kts
2026-05-06 17:49 55.62878 12.63799 22 ft 4 kts 30°
2026-05-06 17:49 55.62868 12.63798 22 ft 4 kts 120°
2026-05-06 17:49 55.62875 12.63797 22 ft 4 kts 34°
2026-05-06 17:50 55.62878 12.63799 22 ft 3 kts 13°
2026-05-06 17:50 55.62857 12.63781 24 ft 4 kts 60°
2026-05-06 17:50 55.62854 12.63744 22 ft 3 kts 104°
2026-05-06 17:50 55.62859 12.63698 22 ft 4 kts 90°
2026-05-06 17:51 55.62859 12.63667 22 ft 1 kts 89°
2026-05-06 17:51 55.62859 12.63666 22 ft 0 kts 89°
2026-05-06 17:54 55.62859 12.63673 22 ft 3 kts 90°
2026-05-06 17:55 55.62853 12.63751 22 ft 9 kts 102°
2026-05-06 17:55 55.62839 12.63865 22 ft 10 kts 103°
2026-05-06 17:55 55.62796 12.63953 22 ft 10 kts 172°
2026-05-06 17:55 55.62727 12.63904 22 ft 11 kts 212°
2026-05-06 17:56 55.62656 12.63867 22 ft 12 kts 153°
2026-05-06 17:56 55.62603 12.63982 22 ft 12 kts 123°
2026-05-06 17:56 55.62554 12.64113 22 ft 13 kts 124°
2026-05-06 17:56 55.62502 12.64249 22 ft 14 kts 124°
2026-05-06 17:57 55.62446 12.64389 22 ft 14 kts 128°
2026-05-06 17:57 55.62386 12.64533 22 ft 15 kts 123°
2026-05-06 17:57 55.62329 12.64687 22 ft 15 kts 123°
2026-05-06 17:57 55.62264 12.64789 23 ft 13 kts 172°
2026-05-06 17:58 55.62213 12.64774 23 ft 0 kts 208°
2026-05-06 17:59 55.62201 12.64761 23 ft 7 kts 210°
2026-05-06 18:00 55.62144 12.64698 24 ft 10 kts 212°
2026-05-06 18:00 55.62081 12.64625 22 ft 12 kts 214°
2026-05-06 18:00 55.62006 12.64539 22 ft 13 kts 210°
2026-05-06 18:00 55.61915 12.64505 22 ft 14 kts 174°
2026-05-06 18:01 55.61818 12.64535 24 ft 14 kts 170°
2026-05-06 18:01 55.61716 12.64567 22 ft 16 kts 172°
2026-05-06 18:01 55.61615 12.64497 22 ft 17 kts 213°
2026-05-06 18:01 55.61515 12.64383 23 ft 18 kts 213°
2026-05-06 18:02 55.61411 12.64263 23 ft 18 kts 213°
2026-05-06 18:02 55.61301 12.64137 22 ft 19 kts 213°
2026-05-06 18:02 55.61186 12.64006 22 ft 20 kts 213°
2026-05-06 18:02 55.61067 12.63870 23 ft 21 kts 213°
2026-05-06 18:03 55.60943 12.63728 22 ft 22 kts 213°
2026-05-06 18:03 55.60848 12.63618 22 ft 10 kts 212°
2026-05-06 18:03 55.60781 12.63610 23 ft 11 kts 147°
2026-05-06 18:03 55.60735 12.63690 22 ft 0 kts 131°
2026-05-06 18:04 55.60718 12.63724 23 ft 8 kts 131°
2026-05-06 18:04 55.60689 12.63837 24 ft 13 kts 89°
2026-05-06 18:05 55.60815 12.64087 25 ft 59 kts 41°
2026-05-06 18:05 55.61306 12.64844 24 ft 127 kts 41°
2026-05-06 18:05 55.62117 12.66082 163 ft 166 kts 45°
2026-05-06 18:05 55.62965 12.67358 868 ft 156 kts 46°
2026-05-06 18:06 55.63796 12.68700 1271 ft 170 kts 47°
2026-05-06 18:06 55.64713 12.70162 1648 ft 187 kts 45°
2026-05-06 18:06 55.65741 12.71743 2085 ft 204 kts 43°
2026-05-06 18:06 55.66862 12.73405 2624 ft 217 kts 42°
2026-05-06 18:07 55.68083 12.75218 2959 ft 240 kts 43°
2026-05-06 18:07 55.69326 12.77307 3533 ft 250 kts 54°
2026-05-06 18:07 55.70120 12.80034 4306 ft 252 kts 76°
2026-05-06 18:07 55.70376 12.83117 5101 ft 255 kts 92°
2026-05-06 18:08 55.69949 12.86182 5891 ft 261 kts 115°
2026-05-06 18:08 55.68795 12.88703 6646 ft 270 kts 140°
2026-05-06 18:08 55.67115 12.90250 7355 ft 276 kts 159°
2026-05-06 18:08 55.65286 12.91364 8102 ft 280 kts 161°
2026-05-06 18:09 55.63427 12.92484 8840 ft 284 kts 160°
2026-05-06 18:09 55.61553 12.93653 9587 ft 287 kts 160°
2026-05-06 18:09 55.59663 12.94857 10210 ft 294 kts 161°
2026-05-06 18:09 55.57684 12.96130 10522 ft 311 kts 161°
2026-05-06 18:10 55.55592 12.97487 10778 ft 329 kts 161°
2026-05-06 18:10 55.53386 12.98924 11026 ft 347 kts 161°
2026-05-06 18:10 55.51095 13.00417 11490 ft 357 kts 161°
2026-05-06 18:10 55.48745 13.01948 12108 ft 361 kts 162°
2026-05-06 18:11 55.46346 13.03270 12781 ft 362 kts 170°
2026-05-06 18:11 55.43874 13.04117 13461 ft 364 kts 172°
2026-05-06 18:11 55.41387 13.04896 14114 ft 367 kts 172°
2026-05-06 18:11 55.38839 13.05700 14738 ft 369 kts 172°
2026-05-06 18:12 55.36300 13.06513 15357 ft 371 kts 172°
2026-05-06 18:12 55.33752 13.07335 15969 ft 374 kts 172°
2026-05-06 18:12 55.31186 13.08167 16577 ft 376 kts 172°
2026-05-06 18:12 55.28600 13.09008 17169 ft 379 kts 172°
2026-05-06 18:13 55.26003 13.09851 17766 ft 381 kts 172°
2026-05-06 18:13 55.23385 13.10700 18345 ft 384 kts 172°
2026-05-06 18:13 55.20748 13.11556 18817 ft 386 kts 172°
2026-05-06 18:13 55.18098 13.12418 19292 ft 388 kts 172°
2026-05-06 18:14 55.15427 13.13279 19725 ft 392 kts 172°
2026-05-06 18:14 55.12738 13.14147 20179 ft 395 kts 172°
2026-05-06 18:14 55.10029 13.15023 20618 ft 397 kts 172°
2026-05-06 18:14 55.07296 13.15909 21068 ft 402 kts 173°
2026-05-06 18:15 55.04539 13.16795 21510 ft 402 kts 173°
2026-05-06 18:15 55.01766 13.17680 21947 ft 408 kts 173°
2026-05-06 18:15 54.98972 13.18574 22445 ft 409 kts 173°
2026-05-06 18:15 54.96180 13.19465 22880 ft 408 kts 173°
2026-05-06 18:16 54.93370 13.20372 23208 ft 414 kts 172°
2026-05-06 18:16 54.90535 13.21287 23587 ft 414 kts 173°
2026-05-06 18:16 54.87693 13.22193 23874 ft 417 kts 173°
2026-05-06 18:16 54.84830 13.23102 24221 ft 419 kts 173°
2026-05-06 18:17 54.81961 13.24014 24595 ft 421 kts 172°
2026-05-06 18:17 54.79079 13.24927 24964 ft 422 kts 172°
2026-05-06 18:17 54.76180 13.25847 25353 ft 423 kts 172°
2026-05-06 18:17 54.73276 13.26768 25719 ft 425 kts 172°
2026-05-06 18:18 54.70361 13.27690 26105 ft 426 kts 172°
2026-05-06 18:18 54.67446 13.28611 26461 ft 428 kts 171°
2026-05-06 18:18 54.64509 13.29542 26860 ft 429 kts 172°
2026-05-06 18:18 54.61565 13.30469 27232 ft 430 kts 172°
2026-05-06 18:19 54.58615 13.31396 27599 ft 431 kts 172°
2026-05-06 18:19 54.55668 13.32318 27986 ft 431 kts 172°
2026-05-06 18:19 54.52711 13.33242 28313 ft 432 kts 171°
2026-05-06 18:19 54.49748 13.34166 28630 ft 434 kts 171°
2026-05-06 18:20 54.46775 13.35097 29036 ft 433 kts 171°
2026-05-06 18:20 54.43823 13.36020 29499 ft 431 kts 171°
2026-05-06 18:20 54.40882 13.36936 29924 ft 428 kts 171°
2026-05-06 18:20 54.37958 13.37846 30279 ft 426 kts 171°
2026-05-06 18:21 54.35036 13.38751 30559 ft 426 kts 171°
2026-05-06 18:21 54.32122 13.39655 30840 ft 426 kts 171°
2026-05-06 18:21 54.29203 13.40559 31135 ft 426 kts 171°
2026-05-06 18:21 54.26286 13.41462 31382 ft 426 kts 172°
2026-05-06 18:22 54.23369 13.42362 31644 ft 426 kts 172°
2026-05-06 18:22 54.20495 13.43249 31912 ft 425 kts 172°
2026-05-06 18:22 54.17549 13.44158 32187 ft 425 kts 173°
2026-05-06 18:22 54.14682 13.45041 32450 ft 424 kts 173°
2026-05-06 18:23 54.11742 13.45943 32709 ft 423 kts 173°
2026-05-06 18:23 54.08842 13.46832 32905 ft 425 kts 173°
2026-05-06 18:23 54.03031 13.48613 32922 ft 423 kts 173°
2026-05-06 18:24 53.97229 13.50381 32893 ft 423 kts 173°
2026-05-06 18:24 53.91477 13.52137 32893 ft 422 kts 173°
2026-05-06 18:25 53.85692 13.53894 32885 ft 422 kts 173°
2026-05-06 18:25 53.79911 13.55642 32885 ft 422 kts 173°
2026-05-06 18:26 53.74122 13.57392 32882 ft 422 kts 173°
2026-05-06 18:26 53.68340 13.59137 32880 ft 423 kts 173°
2026-05-06 18:27 53.62553 13.60877 32871 ft 423 kts 173°
2026-05-06 18:27 53.56760 13.62609 32862 ft 422 kts 174°
2026-05-06 18:28 53.50977 13.64337 32865 ft 422 kts 174°
2026-05-06 18:28 53.45203 13.66059 32850 ft 422 kts 174°
2026-05-06 18:29 53.39407 13.67780 32858 ft 423 kts 174°
2026-05-06 18:29 53.33606 13.69495 32853 ft 423 kts 174°
2026-05-06 18:30 53.27804 13.71206 32857 ft 423 kts 174°
2026-05-06 18:30 53.22011 13.72915 32861 ft 423 kts 174°
2026-05-06 18:31 53.16226 13.74617 32848 ft 421 kts 174°
2026-05-06 18:31 53.10452 13.76307 32848 ft 421 kts 174°
2026-05-06 18:32 53.05657 13.77705 32845 ft 421 kts 174°
2026-05-06 18:32 52.99888 13.79385 32844 ft 421 kts 174°
2026-05-06 18:33 52.94132 13.81057 32833 ft 417 kts 174°
2026-05-06 18:33 52.88426 13.82712 32838 ft 415 kts 174°
2026-05-06 18:34 52.82732 13.84358 32836 ft 415 kts 175°
2026-05-06 18:34 52.77035 13.86000 32832 ft 415 kts 174°
2026-05-06 18:35 52.71344 13.87637 32831 ft 415 kts 174°
2026-05-06 18:35 52.65649 13.89269 32834 ft 415 kts 174°
2026-05-06 18:36 52.59951 13.90901 32827 ft 415 kts 174°
2026-05-06 18:36 52.54252 13.92526 32836 ft 415 kts 175°
2026-05-06 18:37 52.48558 13.94146 32811 ft 415 kts 175°
2026-05-06 18:37 52.42861 13.95763 32830 ft 415 kts 175°
2026-05-06 18:38 52.37199 13.97369 32819 ft 412 kts 175°
2026-05-06 18:38 52.31542 13.98964 32798 ft 412 kts 175°
2026-05-06 18:39 52.25907 14.00549 32807 ft 411 kts 175°
2026-05-06 18:40 52.17440 14.02927 32805 ft 411 kts 175°
2026-05-06 18:40 52.11801 14.04503 32796 ft 411 kts 175°
2026-05-06 18:41 52.06125 14.06087 32810 ft 411 kts 175°
2026-05-06 18:41 52.00526 14.07646 32807 ft 411 kts 175°
2026-05-06 18:42 51.94852 14.09219 32811 ft 411 kts 175°
2026-05-06 18:42 51.89208 14.10782 32789 ft 412 kts 175°
2026-05-06 18:43 51.83556 14.12346 32787 ft 412 kts 175°
2026-05-06 18:43 51.77902 14.13904 32782 ft 412 kts 175°
2026-05-06 18:44 51.72247 14.15458 32786 ft 412 kts 175°
2026-05-06 18:44 51.66593 14.17008 32779 ft 412 kts 175°
2026-05-06 18:45 51.60949 14.18550 32527 ft 409 kts 175°
2026-05-06 18:45 51.58141 14.19317 32236 ft 409 kts 175°
2026-05-06 18:45 51.55334 14.20081 31971 ft 409 kts 175°
2026-05-06 18:45 51.52527 14.20844 31509 ft 408 kts 175°
2026-05-06 18:46 51.49736 14.21605 30916 ft 406 kts 175°
2026-05-06 18:46 51.46962 14.22361 30342 ft 405 kts 175°
2026-05-06 18:46 51.44201 14.23113 29762 ft 401 kts 174°
2026-05-06 18:46 51.41500 14.23842 29080 ft 395 kts 174°
2026-05-06 18:47 51.38759 14.24583 28457 ft 393 kts 174°
2026-05-06 18:47 51.36083 14.25305 27897 ft 387 kts 174°
2026-05-06 18:47 51.33433 14.26018 27348 ft 385 kts 174°
2026-05-06 18:47 51.30793 14.26728 26800 ft 384 kts 174°
2026-05-06 18:48 51.28166 14.27432 26222 ft 381 kts 174°
2026-05-06 18:48 51.25561 14.28137 25676 ft 379 kts 174°
2026-05-06 18:48 51.22972 14.28834 25148 ft 376 kts 174°
2026-05-06 18:48 51.20434 14.29515 24629 ft 373 kts 174°
2026-05-06 18:49 51.17849 14.30207 24095 ft 371 kts 174°
2026-05-06 18:49 51.15308 14.30887 23548 ft 370 kts 173°
2026-05-06 18:49 51.12772 14.31566 22959 ft 368 kts 173°
2026-05-06 18:49 51.10256 14.32238 22386 ft 365 kts 173°
2026-05-06 18:50 51.07762 14.32903 21824 ft 362 kts 173°
2026-05-06 18:50 51.05284 14.33565 21258 ft 360 kts 174°
2026-05-06 18:50 51.02830 14.34220 20747 ft 357 kts 174°
2026-05-06 18:50 51.00417 14.34863 20244 ft 354 kts 174°
2026-05-06 18:51 50.97991 14.35507 19745 ft 352 kts 174°
2026-05-06 18:51 50.95592 14.36142 19286 ft 349 kts 174°
2026-05-06 18:51 50.93208 14.36782 18847 ft 347 kts 173°
2026-05-06 18:51 50.90817 14.37606 18474 ft 348 kts 170°
2026-05-06 18:52 50.88493 14.38473 18221 ft 347 kts 170°
2026-05-06 18:52 50.86114 14.39368 17946 ft 346 kts 170°
2026-05-06 18:52 50.83810 14.40229 17557 ft 343 kts 170°
2026-05-06 18:52 50.81497 14.41092 17136 ft 341 kts 170°
2026-05-06 18:53 50.79197 14.41948 16699 ft 339 kts 170°
2026-05-06 18:53 50.76904 14.42800 16250 ft 338 kts 170°
2026-05-06 18:53 50.74613 14.43647 15813 ft 338 kts 170°
2026-05-06 18:53 50.72326 14.44492 15397 ft 337 kts 170°
2026-05-06 18:54 50.70040 14.45338 14977 ft 337 kts 170°
2026-05-06 18:54 50.67760 14.46180 14554 ft 337 kts 170°
2026-05-06 18:54 50.65478 14.47005 14105 ft 334 kts 173°
2026-05-06 18:54 50.63198 14.46997 13582 ft 325 kts 194°
2026-05-06 18:55 50.61144 14.45688 13040 ft 317 kts 214°
2026-05-06 18:55 50.59452 14.43520 12537 ft 312 kts 223°
2026-05-06 18:55 50.57896 14.41178 11996 ft 309 kts 225°
2026-05-06 18:55 50.56368 14.38810 11464 ft 307 kts 225°
2026-05-06 18:56 50.54852 14.36449 10957 ft 306 kts 225°
2026-05-06 18:56 50.53331 14.34079 10457 ft 303 kts 225°
2026-05-06 18:56 50.51866 14.31791 10103 ft 296 kts 225°
2026-05-06 18:56 50.50436 14.29557 9853 ft 284 kts 225°
2026-05-06 18:57 50.49066 14.27423 9590 ft 272 kts 225°
2026-05-06 18:57 50.47741 14.25357 9226 ft 266 kts 225°
2026-05-06 18:57 50.46429 14.23311 8843 ft 267 kts 225°
2026-05-06 18:57 50.45105 14.21257 8726 ft 268 kts 225°
2026-05-06 18:58 50.43782 14.19204 8712 ft 266 kts 225°
2026-05-06 18:58 50.42476 14.17185 8337 ft 263 kts 225°
2026-05-06 18:58 50.41179 14.15176 7878 ft 262 kts 225°
2026-05-06 18:58 50.39884 14.13162 7420 ft 262 kts 225°
2026-05-06 18:59 50.38597 14.11155 6998 ft 262 kts 225°
2026-05-06 18:59 50.37301 14.09136 6767 ft 263 kts 225°
2026-05-06 18:59 50.36006 14.07113 6727 ft 263 kts 225°
2026-05-06 18:59 50.34717 14.05102 6629 ft 259 kts 225°
2026-05-06 19:00 50.33445 14.03115 6218 ft 258 kts 225°
2026-05-06 19:00 50.32172 14.01127 5746 ft 259 kts 224°
2026-05-06 19:00 50.30657 13.99660 5366 ft 255 kts 200°
2026-05-06 19:00 50.29547 13.99129 5245 ft 249 kts 196°
2026-05-06 19:01 50.27373 13.98277 5009 ft 233 kts 194°
2026-05-06 19:01 50.25802 13.98240 4771 ft 225 kts 166°
2026-05-06 19:01 50.24355 13.99139 4376 ft 223 kts 156°
2026-05-06 19:01 50.22974 14.00246 4034 ft 225 kts 147°
2026-05-06 19:02 50.21770 14.01814 3956 ft 227 kts 135°
2026-05-06 19:02 50.20773 14.03713 3946 ft 222 kts 122°
2026-05-06 19:02 50.19950 14.05563 3985 ft 194 kts 130°
2026-05-06 19:02 50.19187 14.07176 3904 ft 177 kts 129°
2026-05-06 19:03 50.18458 14.08688 3726 ft 173 kts 127°
2026-05-06 19:03 50.17731 14.10197 3509 ft 175 kts 127°
2026-05-06 19:03 50.17010 14.11687 3271 ft 172 kts 127°
2026-05-06 19:03 50.16290 14.13177 3025 ft 171 kts 125°
2026-05-06 19:04 50.15578 14.14652 2795 ft 170 kts 126°
2026-05-06 19:04 50.14871 14.16116 2565 ft 169 kts 125°
2026-05-06 19:04 50.14180 14.17545 2351 ft 160 kts 125°
2026-05-06 19:04 50.13529 14.18902 2102 ft 155 kts 124°
2026-05-06 19:05 50.12881 14.20232 1918 ft 154 kts 125°
2026-05-06 19:05 50.12242 14.21556 1717 ft 152 kts 124°
2026-05-06 19:05 50.11610 14.22869 1503 ft 152 kts 126°
2026-05-06 19:05 50.10972 14.24172 1265 ft 151 kts 125°
2026-05-06 19:06 50.10366 14.25443 1187 ft 129 kts 126°
2026-05-06 19:06 50.09997 14.26209 1204 ft 63 kts 127°
2026-05-06 19:06 50.09864 14.26538 1218 ft 22 kts 85°
2026-05-06 19:06 50.09886 14.26774 1217 ft 22 kts 82°
2026-05-06 19:07 50.09905 14.26962 1214 ft 15 kts 81°
2026-05-06 19:07 50.09914 14.27055 1213 ft 5 kts 81°
2026-05-06 19:07 50.09914 14.27056 1213 ft 0 kts 81°
2026-05-06 19:08 50.09917 14.27080 1212 ft 5 kts 81°
2026-05-06 19:08 50.09957 14.27100 1211 ft 11 kts 316°
2026-05-06 19:08 50.10003 14.27002 1209 ft 12 kts 306°
2026-05-06 19:08 50.10053 14.26896 1207 ft 13 kts 306°
2026-05-06 19:09 50.10107 14.26782 1204 ft 14 kts 308°
2026-05-06 19:09 50.10167 14.26662 1202 ft 15 kts 308°
2026-05-06 19:09 50.10230 14.26538 1201 ft 15 kts 309°
2026-05-06 19:09 50.10294 14.26402 1198 ft 16 kts 306°
2026-05-06 19:10 50.10360 14.26267 1195 ft 16 kts 307°
2026-05-06 19:10 50.10428 14.26130 1192 ft 16 kts 308°
2026-05-06 19:10 50.10499 14.25985 1190 ft 17 kts 305°
2026-05-06 19:10 50.10559 14.25849 1188 ft 10 kts 303°
2026-05-06 19:11 50.10614 14.25807 1186 ft 10 kts 22°
2026-05-06 19:11 50.10677 14.25867 1182 ft 11 kts 34°
2026-05-06 19:11 50.10742 14.25937 1182 ft 12 kts 34°
2026-05-06 19:11 50.10809 14.26007 1182 ft 6 kts 34°
2026-05-06 19:12 50.10831 14.26050 1182 ft 6 kts 89°
2026-05-06 19:12 50.10817 14.26110 1183 ft 4 kts 122°
2026-05-06 19:12 50.10806 14.26134 1183 ft 0 kts 123°